Vorticity
nan nan nan nan nan nan nan nan nan nan nan nan nan nan nan nan nan nan nan nan nan nan nan nan nan nan nan nan nan nan nan nan nan nan nan nan nan nan nan nan nan nan nan nan nan nan nan nan nan
nan 3 1 5 12 9 4 8 8 8 6 5 7 6 1 10 16 11 8 7 8 5 6 7 5 5 5 5 5 6 6 6 5 4 4 4 4 5 6 6 6 8 6 6 8 6 5 5 nan
nan 6 8 8 9 10 9 6 5 7 4 9 4 4 16 14 5 6 8 4 4 5 6 8 7 5 4 5 5 5 5 5 6 5 5 5 6 7 6 4 6 6 5 7 6 6 6 7 nan
nan 5 6 9 8 8 8 7 8 8 3 10 11 4 7 7 9 14 8 5 4 12 6 5 5 4 4 4 4 5 5 5 5 6 5 6 7 7 7 7 6 5 6 5 5 7 6 6 nan
nan 5 10 5 4 8 5 6 9 7 7 7 12 8 6 4 13 10 5 5 3 8 11 7 5 5 5 4 4 4 4 4 5 4 4 5 6 6 7 8 7 6 5 7 7 5 6 6 nan
nan 9 6 3 7 7 7 3 8 6 11 9 5 5 6 12 8 5 6 4 9 1 7 5 6 6 6 4 4 4 4 4 4 4 4 5 5 4 4 6 8 7 6 6 7 6 6 5 nan
nan 1 7 11 3 3 6 6 6 8 8 9 -0 7 9 10 6 7 5 6 4 2 11 8 6 6 6 7 5 5 4 5 5 5 5 4 4 5 6 5 6 6 7 6 6 6 7 5 nan
nan 9 6 2 6 4 4 8 3 4 10 5 9 10 14 10 7 5 5 6 6 7 1 7 7 9 8 7 7 6 6 6 6 5 5 6 5 7 6 9 12 6 6 6 6 7 6 5 nan
nan 6 7 3 8 9 9 -3 4 5 7 3 10 13 22 8 5 4 4 5 6 5 4 7 5 7 7 6 11 6 7 7 8 7 9 5 9 12 7 8 9 7 6 6 6 7 6 5 nan
nan 5 7 7 6 9 4 5 10 5 4 8 7 10 11 7 3 4 4 7 7 6 5 4 10 7 4 6 8 8 8 10 8 8 6 2 7 10 7 11 6 5 6 7 8 8 6 6 nan
nan 4 6 5 5 6 7 10 3 11 10 8 7 8 6 4 4 4 5 7 8 6 5 7 7 7 4 7 3 6 7 5 8 11 7 7 7 9 7 7 5 8 10 6 10 6 8 7 nan
nan 5 4 2 4 7 4 6 10 3 3 12 17 12 6 5 5 4 7 7 8 7 7 7 7 6 6 6 7 6 6 5 4 5 10 10 7 6 5 6 10 10 7 8 9 9 10 7 nan
nan 4 2 3 5 6 9 8 7 11 3 9 13 10 6 6 6 6 7 6 7 7 8 7 6 6 7 5 4 6 8 8 7 4 8 7 8 8 7 6 6 7 7 10 7 4 7 6 nan
nan 7 6 8 12 7 9 12 9 7 12 10 9 7 6 7 6 6 6 6 6 8 8 7 6 6 6 5 5 9 7 7 8 5 8 7 8 6 6 9 8 5 6 7 4 7 10 8 nan
nan 5 10 12 10 11 13 19 6 11 12 7 7 7 7 7 7 7 6 6 8 7 8 6 7 7 6 7 6 4 6 8 6 8 6 7 10 6 7 6 6 10 9 8 8 9 7 5 nan
nan 7 9 11 12 7 2 9 19 14 9 7 8 7 8 8 6 7 7 6 7 6 8 7 8 7 5 6 6 7 7 7 7 9 8 8 7 9 10 6 6 7 7 10 9 9 7 7 nan
nan 8 8 7 2 5 3 1 13 7 9 11 7 8 8 7 8 7 7 6 6 8 8 6 8 7 7 4 8 8 8 8 8 11 11 11 8 10 8 9 9 4 8 9 7 8 8 7 nan
nan 8 6 3 5 9 4 6 1 4 4 10 11 11 7 10 8 8 6 7 8 7 6 6 5 9 11 7 7 8 11 9 8 10 14 12 9 11 9 9 10 6 8 8 9 7 5 7 nan
nan 6 4 7 5 3 7 4 11 6 9 11 11 11 10 9 10 10 8 8 7 7 7 6 7 10 6 8 7 8 6 7 11 10 12 9 11 9 6 12 12 9 8 8 7 8 8 8 nan
nan 11 8 6 4 4 10 9 6 5 10 15 17 11 9 10 11 10 10 7 7 8 6 8 8 5 5 6 3 8 9 7 9 10 7 9 13 9 5 7 7 8 7 7 7 10 8 9 nan
nan 7 6 6 9 15 8 8 10 14 11 8 10 18 16 12 11 11 11 7 7 8 7 7 6 6 7 2 4 7 5 7 12 9 8 11 8 10 10 6 5 5 6 8 7 7 8 8 nan
nan 10 8 9 9 11 6 12 11 11 10 8 22 15 14 11 13 12 10 9 7 9 8 4 3 8 11 8 4 6 3 7 9 9 12 10 9 8 9 9 9 7 5 7 8 9 10 9 nan
nan 7 11 11 9 11 10 3 7 12 15 9 7 7 10 20 21 13 12 9 10 9 7 2 3 7 13 8 6 9 4 6 8 8 9 9 10 10 7 9 9 7 8 9 9 9 9 7 nan
nan 10 12 10 11 13 10 6 8 11 8 12 3 5 7 19 19 18 13 11 12 6 4 4 6 6 6 10 10 4 8 10 8 10 8 9 10 10 10 11 10 10 8 10 10 9 8 4 nan
nan 5 9 10 9 9 17 14 1 2 10 10 2 9 13 17 18 16 14 11 10 7 3 1 3 8 11 13 10 13 13 10 8 10 11 9 7 11 15 10 9 8 8 7 8 9 10 13 nan
nan 5 3 5 5 15 13 5 12 4 3 11 10 9 14 15 15 15 13 8 8 8 6 0 5 10 9 11 12 12 9 9 14 11 10 11 12 10 9 8 9 6 10 9 9 10 10 11 nan
nan 10 3 5 5 8 14 12 7 12 9 17 14 9 12 13 15 14 10 8 8 9 7 1 8 6 5 11 12 10 9 8 12 14 11 10 12 10 7 8 7 9 10 7 8 9 10 8 nan
nan 4 9 8 7 11 13 7 17 16 12 15 17 12 12 11 11 11 10 11 9 11 9 7 8 7 2 10 13 12 12 12 8 11 14 14 10 8 6 6 9 13 9 9 7 9 10 8 nan
nan 5 4 10 10 9 10 2 15 15 16 8 12 13 12 9 9 10 9 9 13 12 10 10 7 5 8 11 10 10 8 9 11 10 12 12 11 9 8 9 10 9 9 9 8 8 12 9 nan
nan nan nan nan nan nan nan nan nan nan nan nan nan nan nan nan nan nan nan nan nan nan nan nan nan nan nan nan nan nan nan nan nan nan nan nan nan nan nan nan nan nan nan nan nan nan nan nan nan
CAPE
755 644 1265 1549 1579 284 97 179 222 352 341 431 442 565 720 980 1242 930 1347 1692 1560 1524 1247 1573 2869 2363 2517 2830 2946 2689 2389 2101 1963 2155 2176 1772 1741 1624 1682 1758 1559 1513 1451 1579 1362 1452 1137 1045 807
1115 1211 1301 1494 524 8 7 13 126 323 371 383 385 553 752 1234 1017 1174 1568 1544 1521 1716 1281 1028 2926 2731 2400 2465 2708 2880 2786 2538 2255 2418 2239 2051 1753 1956 1659 1587 1711 1504 1725 1529 1598 1272 982 701 699
1584 1030 1677 1282 16 1 15 38 135 232 334 306 262 510 705 811 712 1102 1597 1440 1599 1693 1673 1796 2660 2650 2484 2584 2439 2299 2370 2471 2447 2297 2164 1896 1852 2029 1676 1746 1827 1870 1784 1612 1513 1382 849 715 793
1218 1719 1926 139 24 1 25 92 152 114 117 149 229 566 776 651 872 1180 1536 1433 1484 1615 1953 2230 2623 2576 2591 2712 2575 2682 2593 2503 2587 2335 2346 2151 1877 1914 1664 1602 1703 1776 1822 1743 1486 1011 964 802 1107
1362 1366 269 57 28 12 58 122 0 16 116 170 173 538 905 1167 1177 1248 1419 1392 1324 2423 2628 2385 3105 2746 2494 2539 2331 2397 2481 2487 2449 2303 1964 1777 2076 1839 1699 1712 1517 1768 1593 1675 1521 1190 1407 1171 1479
1169 659 99 83 55 29 85 65 0 49 120 173 245 616 1254 1086 1100 1213 1299 1360 1204 2145 2108 2298 2947 2708 2525 2461 2412 2451 2470 2372 2198 2193 2104 1960 1754 1664 1520 1395 1566 1619 1826 1621 1398 1432 1140 1475 1348
1154 201 115 82 59 72 115 36 0 4 10 150 291 577 799 841 1116 1117 1280 1310 1223 1175 2215 2441 2380 2711 2503 2444 2383 2350 2273 2300 2157 2179 2221 1987 2103 1919 1823 1822 1520 1510 1465 1528 1305 1395 1330 1150 1101
718 341 81 125 156 136 176 150 67 6 50 263 423 553 631 897 1006 1179 1501 1483 1332 1134 2537 2184 2530 2670 2501 2287 2408 2372 2321 2271 2195 2191 1988 1992 1979 1896 1691 1834 1976 1744 1483 1475 1464 1411 1730 1153 935
591 540 129 116 126 135 171 286 215 246 145 222 307 529 696 908 1314 1552 1789 1804 1724 1369 1304 2326 2399 2516 2679 2538 2447 2456 2403 2185 2063 2179 1897 1826 1485 1582 1280 1894 1701 1725 1700 1447 1318 1564 1571 1342 1037
178 138 7 5 41 141 135 213 273 541 337 323 429 680 817 867 1373 1572 1688 1641 1719 1505 1333 1278 1592 2359 2262 1679 2986 2536 2055 1679 1959 2019 2526 2035 1896 1806 1670 1303 1494 1562 1726 1637 1479 1300 1517 1616 492
74 80 0 18 1 11 151 217 338 385 469 430 433 708 803 1008 1253 1431 1508 1241 1668 1625 1535 1501 1502 1611 1389 1228 1601 2402 2085 2542 2557 2207 2134 2149 2412 1863 1246 1503 1621 964 1355 1009 1279 1035 936 789 558
0 36 0 1 0 0 60 120 286 371 408 232 324 603 781 900 1126 1302 1452 1387 1408 1607 1708 1840 1826 1885 1642 1447 1297 1482 1690 2316 1779 1319 1108 2642 1745 1510 1278 1352 1967 2136 3001 1352 1369 927 1099 1171 1429
0 4 1 1 0 10 2 57 106 275 442 379 325 581 855 807 948 1183 1406 1421 1379 1655 1806 1988 2296 2882 2416 2329 2071 1753 1372 1564 1342 596 973 796 674 1188 1330 1574 1860 2112 1737 1568 1674 1716 1473 1303 1927
3 0 0 0 12 32 50 22 87 184 347 590 425 567 829 845 925 1046 1359 1507 1528 1667 1869 1996 2570 2828 2711 2886 2704 2550 1995 1646 1416 1012 391 1121 666 1144 1277 2023 1346 1560 1906 1965 1471 2260 956 1364 873
0 0 0 2 38 41 40 28 52 118 276 682 628 581 729 789 919 1136 1219 1595 1694 1682 1914 2170 2526 2893 2971 2933 3000 3715 3919 2794 3331 2228 976 286 504 1362 1648 882 1924 2530 2741 2119 2846 1970 941 1111 1130
0 0 0 2 50 59 50 54 24 88 182 679 788 740 698 772 794 1063 1243 1601 1772 1832 2042 2370 2332 2707 3014 3540 3467 2775 2487 2917 3409 2410 2263 153 132 464 947 589 787 1817 1788 2689 2127 2617 1589 1208 1386
0 0 5 5 29 47 104 45 52 66 95 438 787 942 894 911 860 1024 1194 1341 1646 2016 2477 2732 2817 2808 3080 3226 2423 2635 2591 3584 3830 2637 1865 1317 341 505 471 459 772 1164 575 2127 1898 2143 2624 1703 1489
0 5 8 0 16 47 73 141 91 117 145 174 344 963 1087 1141 1037 999 1103 1149 1418 2030 2706 3302 4183 3500 3967 2942 3740 2731 3643 2761 2679 1344 877 2099 843 568 238 113 1037 973 846 841 1803 2068 1217 1099 999
0 0 0 0 0 0 0 13 17 11 45 133 199 500 1041 1126 1239 1185 1178 1251 1463 2015 3079 3611 3716 3897 4193 3244 507 719 1268 1833 2004 1096 1072 1298 1683 686 433 276 787 731 846 1137 1075 775 1163 1484 1101
0 0 0 0 0 0 0 0 46 9 4 38 128 272 823 1069 1190 1327 1397 1381 1491 1953 3102 3762 3823 4479 3690 2564 328 155 547 2096 1871 1055 1151 1198 1796 1186 1186 772 437 389 218 149 334 510 1987 1393 2283
0 0 0 0 0 0 0 0 1 18 18 31 12 47 387 864 1040 1284 1753 1816 1784 2409 3168 3722 3479 3843 3168 2621 945 399 1479 2316 1934 1351 1118 1158 1113 1593 1405 917 625 347 201 167 727 364 673 812 1532
0 0 0 0 0 0 1 4 86 67 47 24 78 98 157 470 918 1128 1685 2127 2094 2711 3686 2749 2303 2808 2635 2933 2470 2395 1962 2220 1654 1322 912 1206 1209 1094 1618 1484 1190 1159 1245 581 1998 2055 1796 1716 2109
0 0 0 0 0 0 0 14 49 67 51 41 99 68 216 234 703 913 1589 2285 2378 3319 2233 1351 1260 1145 1729 3244 2562 2302 2426 1703 1982 1704 1187 1528 1714 1155 1009 1504 1452 1551 2260 1506 1295 780 552 805 2090
0 0 0 0 0 0 0 0 34 101 47 31 55 137 287 336 473 985 1341 2549 2836 3214 1225 682 1150 1082 1133 1108 1961 1583 1370 1752 3223 2366 1336 2510 2473 2396 1296 1179 1512 1664 1602 1404 1545 1475 1457 2145 1576
0 0 0 0 0 0 0 22 35 22 37 1 1 106 340 615 581 1170 1487 2851 3514 2676 1329 995 589 732 1128 1210 810 1204 1932 2290 2502 2517 2132 1566 1757 716 1414 991 1500 1395 1310 776 587 853 1570 1110 1288
0 0 0 2 11 43 26 14 77 43 1 0 3 315 404 959 981 1227 2006 3562 3225 2455 1769 1205 735 1418 1890 1737 1779 1976 2771 3353 3136 1536 1401 1501 577 656 795 732 801 707 478 315 509 650 920 1100 1384
0 0 0 0 0 6 24 49 51 0 0 0 14 804 833 1635 1473 1612 3041 3203 3055 2663 2122 1141 964 1550 2079 1637 2076 1740 1634 2337 1839 1830 1265 898 898 641 354 564 695 999 330 318 598 706 900 772 1207
0 0 0 0 0 20 43 22 82 39 14 371 1017 1506 1716 2060 2357 2273 2830 3096 2777 2575 2408 1977 1650 2167 2345 1933 2702 3000 2832 2046 2154 2231 1062 1034 795 641 201 166 404 246 306 266 407 615 592 656 690
0 0 0 21 32 48 56 38 154 29 423 786 1611 2038 1876 2207 2607 2766 2806 3089 2601 2573 2567 2128 2064 1623 2415 2700 3075 2670 2252 1745 1463 1368 1065 1127 993 733 651 743 609 169 171 169 209 409 325 247 832
7 6 0 19 26 39 64 23 205 218 450 787 1892 2236 2185 2277 2755 2395 2523 2726 2721 2810 2846 2815 2195 1415 2613 2625 2474 2229 1675 1431 1398 1178 1505 1284 1147 1095 1118 326 156 146 86 7 55 133 481 643 679